Location: Unspecified
(0.0000°N, 0.0000°E)
Time: 19:50:47
(UTC+00:00)

Tiros 1 despin weight - Pass Details

Date: 01 June 2022
Orbit: 591 x 639 km, 48.2° (Epoch: 25 June)

Event Time Altitude Azimuth Distance (km) Brightness Sun altitude
Rises 00:01:10 0° 339° (NNW) 2,802 - -68.0°
Reaches altitude 10° 00:03:40 10° 350° (N) 1,904 - -67.9°
Maximum altitude 00:07:28 29° 51° (NE) 1,084 - -67.8°
Drops below altitude 10° 00:11:17 10° 112° (ESE) 1,920 - -67.7°
Sets 00:13:48 0° 123° (ESE) 2,829 - -67.6°
